Lexington Weather

Lexington, Massachusetts, USA

75°F
8/7/2020 11:59am 
  • Lexington Conditions: Mostly cloudy
  • Temperature: 75.4°F / 24.1°CWarmer 3.6°F than last hour.
  • Dew Point: 64.9°FIncreased 1.4°Fsince last hour.
  • Relative Humidity: 70%Decreased 5.0% since last hour.
  • Wind: Calm, 10-min avg: Calm, gust: 2 mph
  • Barometer: 30.13 in Steady
  • Visibility: 10 miles
  • Rain Today: 0.00 in
  •   

Regional Weather Roundup
for Boston / Norton, MA

        
000
ASUS41 KBOX 032204
RWRBOX

REGIONAL WEATHER ROUNDUP
NATIONAL WEATHER SERVICE BOSTON/NORTON MA
600 PM EDT MON AUG 03 2020

NOTE:  "FAIR" INDICATES FEW OR NO CLOUDS BELOW 12,000 FEET WITH NO 
SIGNIFICANT WEATHER AND/OR OBSTRUCTIONS TO VISIBILITY.

MAZALL-032300-
EASTERN MASSACHUSETTS
  
CITY           SKY/WX    TMP DP  RH WIND       PRES   REMARKS
BOSTON         MOSUNNY   89  62  40 W12G22    29.95S                  
BEVERLY        SUNNY     88  61  40 W10       29.95R                  
LAWRENCE       SUNNY     87  63  44 W10       29.98R                  
BEDFORD        SUNNY     88  64  44 W12       29.95S                  
BLUE HILL      NOT AVBL                                               
NORWOOD        MOSUNNY   88  63  43 SW9G18    29.96R                  
MARSHFIELD     MOSUNNY   91  64  40 SW13      29.94R HX  93           
PLYMOUTH       SUNNY     88  64  44 SW13G22   29.97R                  
TAUNTON        SUNNY     89  64  43 SW12G21   29.96R HX  90           
NEW BEDFORD    MOSUNNY   86  65  49 SW15G26   29.98R                  
$$

MAZALL-032300-
CAPE COD AND THE ISLANDS
  
CITY           SKY/WX    TMP DP  RH WIND       PRES   REMARKS
FALMOUTH       SUNNY     82  66  57 SW23G32   29.99S                  
HYANNIS        SUNNY     84  66  54 SW23G32   29.98R                  
CHATHAM        SUNNY     82  70  66 VRB7G21   30.01R                  
PROVINCETOWN   SUNNY     81  68  64 SW18G26   29.97R                  
NANTUCKET      SUNNY     78  73  84 SW14      30.02S                  
MARTHAS VNYRD  SUNNY     81  69  67 SW15G22   30.02R                  
$$
 
MAZALL-032300-
CENTRAL AND WESTERN MASSACHUSETTS
  
CITY           SKY/WX    TMP DP  RH WIND       PRES   REMARKS
WORCESTER      SUNNY     84  63  49 NW9       30.03R                  
FITCHBURG      SUNNY     87  60  40 NW14      29.99R                  
ORANGE         SUNNY     85  61  44 VRB6      30.01S                  
SPRINGFIELD    PTSUNNY   87  64  45 W9        29.98R                  
WESTFIELD      SUNNY     87  63  44 W7        29.99R                  
NORTH ADAMS    NOT AVBL                                               
PITTSFIELD     SUNNY     81  61  50 NW8       30.04R                  
$$
 
RIZALL-032300-
RHODE ISLAND
  
CITY           SKY/WX    TMP DP  RH WIND       PRES   REMARKS
PROVIDENCE     MOSUNNY   90  63  40 SW16G24   29.98R HX  91           
NEWPORT        SUNNY     82  67  60 S10G22    30.00R                  
BLOCK ISLAND   SUNNY     79  69  71 SW17      30.03R                  
SMITHFIELD     MOSUNNY   86  63  45 W10       30.00R                  
WESTERLY       SUNNY     83  66  56 SW8       30.01S                  
$$
 
CTZALL-032300-
CONNECTICUT
  
CITY           SKY/WX    TMP DP  RH WIND       PRES   REMARKS
BRADLEY INTL   MOSUNNY   89  61  38 W10       29.98R                  
HARTFORD       MOSUNNY   88  61  40 SW6       29.98R                  
BRIDGEPORT     SUNNY     87  66  49 SW13      30.00R                  
DANBURY        SUNNY     84  62  47 W6        30.03R                  
GROTON         SUNNY     79  69  71 SW12      30.00R                  
NEW HAVEN      SUNNY     86  67  52 SW9       30.00S                  
CHESTER        FAIR      88  63  42 VRB6G13   30.02R                  
MERIDEN        SUNNY     88  61  40 W8        29.99S                  
WILLIMANTIC    SUNNY     88  61  40 W8G17     30.00R                  
OXFORD         MOSUNNY   85  64  49 VRB5      30.04S                  
$$

MEZ002-015-021-024-NHZ003-005-008-011-012-014-VTZ005-008-032300-
NORTHERN NEW ENGLAND
  
CITY           SKY/WX    TMP DP  RH WIND       PRES   REMARKS
PORTLAND ME    SUNNY     87  60  40 W14G21    29.93R                  
BANGOR ME      MOSUNNY   82  59  45 W15G24    29.88R                  
CONCORD NH     MOSUNNY   85  59  41 W13G20    29.97S                  
MANCHESTER NH  MOSUNNY   87  59  38 W14G20    29.96S                  
NASHUA NH      MOSUNNY   86  62  44 NW14G23   29.98R                  
PORTSMOUTH NH  MOSUNNY   87  57  36 W15       29.93R                  
JAFFREY NH     SUNNY     81  57  43 W12G20    30.04S                  
KEENE NH       SUNNY     82  61  48 VRB7      30.01S                  
BURLINGTON VT  MOSUNNY   81  59  47 NW7       29.99S                  
MT. WASHINGTON LGT RAIN  50  50 100 W52G59      N/A  VSB 0            
$$

NYZ052-076-032300-
EASTERN NEW YORK
  
CITY           SKY/WX    TMP DP  RH WIND       PRES   REMARKS
ALBANY         MOSUNNY   81  60  48 VRB5      30.00S                  
NEW YORK CITY  PTSUNNY   89  67  47 S15G21    30.01R HX  92           
$$
 
ANZALL-032300-
MARINE OBSERVATIONS
  
STATION/POSITION TIME  TEMP    WIND        PRES    VSBY  WAVE
                       AIR SEA DIR/SP/G                  HT/PER
                 (UTC) (F)     (DEG/KT/KT) (MB)    (MI)  (FT/S)
BOSTON BUOY      2150   77 70  280/  8/ 10 1013.1R         1/10
BUZZARDS BAY     2100          230/ 22/ 24 1016.7F
NANTUCKET SOUND  2140      77  230/ 19/ 23 1015.2R
MASS BAY-STELLWA NOT AVBL
ISLE OF SHOALS   2100   83     270/ 20/ 21 1012.8S
S OF BLOCK IS    2126      74                N/A           5/ 6
$$

......................KEY.........................
  SKY/WX - SKY CONDITION/PRESENT WEATHER
  TMP    - TEMPERATURE IN FAHRENHEIT
  DWPT   - DEWPOINT IN FAHRENHEIT
  RH     - RELATIVE HUMIDITY IN PERCENT
  WIND   - DIRECTION AND SPEED IN MPH
  PRES   - MEAN SEA LEVEL PRESSURE IN INCHES OF HG
  WCI    - WIND CHILL INDEX
  VSB    - VISIBILITY IN MILES
  HX     - HEAT INDEX
  TC     - TEMPERATURE IN CELSIUS
  VRB    - VARIABLE WIND DIRECTION
  N/A    - NOT AVAILABLE
  
      

Other recent Regional Weather Roundups

Fri Aug 7, 11:04am

Fri Aug 7, 10:04am

Fri Aug 7, 9:04am

Fri Aug 7, 8:04am

Fri Aug 7, 7:04am

Fri Aug 7, 6:04am

Fri Aug 7, 5:04am

Fri Aug 7, 4:04am

Fri Aug 7, 3:04am

Fri Aug 7, 2:04am

Fri Aug 7, 1:05am

Fri Aug 7, 12:04am

Thu Aug 6, 11:04pm

Thu Aug 6, 10:04pm

Thu Aug 6, 9:04pm

Thu Aug 6, 8:04pm

Thu Aug 6, 7:04pm

Thu Aug 6, 6:04pm

Thu Aug 6, 5:04pm

Thu Aug 6, 4:05pm

Thu Aug 6, 3:04pm

Thu Aug 6, 2:05pm

Thu Aug 6, 1:04pm

Thu Aug 6, 12:04pm

Thu Aug 6, 11:04am

Thu Aug 6, 10:04am

Thu Aug 6, 9:04am

Thu Aug 6, 8:04am

Thu Aug 6, 7:04am

Thu Aug 6, 6:04am

Thu Aug 6, 5:04am

Thu Aug 6, 4:04am

Thu Aug 6, 3:04am

Thu Aug 6, 2:05am

Thu Aug 6, 1:04am

Thu Aug 6, 12:04am

Wed Aug 5, 11:04pm

Wed Aug 5, 10:04pm

Wed Aug 5, 9:04pm

Wed Aug 5, 8:05pm

Wed Aug 5, 7:04pm

Wed Aug 5, 6:04pm

Wed Aug 5, 5:04pm

Wed Aug 5, 4:05pm

Wed Aug 5, 3:04pm

Wed Aug 5, 2:04pm

Wed Aug 5, 1:04pm

Wed Aug 5, 12:04pm

Wed Aug 5, 11:04am

Wed Aug 5, 10:04am

Wed Aug 5, 9:04am

Wed Aug 5, 8:04am

Wed Aug 5, 7:04am

Wed Aug 5, 6:04am

Wed Aug 5, 5:04am

Wed Aug 5, 4:04am

Wed Aug 5, 3:04am

Wed Aug 5, 2:05am

Wed Aug 5, 1:04am

Wed Aug 5, 12:05am

Tue Aug 4, 11:05pm

Tue Aug 4, 10:05pm

Tue Aug 4, 9:04pm

Tue Aug 4, 8:04pm

Tue Aug 4, 7:05pm

Tue Aug 4, 6:05pm

Tue Aug 4, 5:05pm

Tue Aug 4, 4:05pm

Tue Aug 4, 3:04pm

Tue Aug 4, 2:05pm

Tue Aug 4, 1:04pm

Tue Aug 4, 12:05pm

Tue Aug 4, 11:04am

Tue Aug 4, 10:04am

Tue Aug 4, 9:04am

Tue Aug 4, 8:04am

Tue Aug 4, 7:04am

Tue Aug 4, 6:04am

Tue Aug 4, 5:04am

Tue Aug 4, 4:04am

Tue Aug 4, 3:04am

Tue Aug 4, 2:04am

Tue Aug 4, 1:04am

Tue Aug 4, 12:04am

Mon Aug 3, 11:04pm

Mon Aug 3, 10:04pm

Mon Aug 3, 9:04pm

Mon Aug 3, 8:05pm

Mon Aug 3, 7:04pm

Mon Aug 3, 5:04pm

Mon Aug 3, 4:05pm

Mon Aug 3, 3:04pm

Mon Aug 3, 2:04pm

Mon Aug 3, 1:04pm

Mon Aug 3, 12:05pm

Mon Aug 3, 11:04am

Mon Aug 3, 10:04am

Mon Aug 3, 9:05am

Mon Aug 3, 8:04am

Mon Aug 3, 7:04am

Mon Aug 3, 6:04am

Mon Aug 3, 5:04am

Mon Aug 3, 4:04am

Mon Aug 3, 3:04am

Mon Aug 3, 2:04am

Mon Aug 3, 1:04am

Mon Aug 3, 12:05am

Sun Aug 2, 11:04pm

Sun Aug 2, 10:04pm

Sun Aug 2, 9:04pm

Sun Aug 2, 8:04pm

Sun Aug 2, 7:04pm

Sun Aug 2, 6:04pm

Sun Aug 2, 5:04pm

Sun Aug 2, 4:05pm

Sun Aug 2, 3:04pm

Sun Aug 2, 2:05pm

Sun Aug 2, 1:04pm

Sun Aug 2, 12:04pm

Sun Aug 2, 11:04am

Sun Aug 2, 10:04am

Sun Aug 2, 9:05am

Sun Aug 2, 8:05am

Sun Aug 2, 7:04am

Sun Aug 2, 6:04am

Sun Aug 2, 5:04am

Sun Aug 2, 4:05am

Sun Aug 2, 3:04am

Sun Aug 2, 2:04am

Sun Aug 2, 1:04am

Sun Aug 2, 12:05am

Sat Aug 1, 11:04pm

Sat Aug 1, 10:04pm

Sat Aug 1, 9:04pm

Sat Aug 1, 8:05pm

Sat Aug 1, 7:04pm

Sat Aug 1, 6:04pm

Sat Aug 1, 5:05pm

Sat Aug 1, 4:05pm

Sat Aug 1, 3:04pm

Sat Aug 1, 2:04pm

Sat Aug 1, 1:04pm

Sat Aug 1, 12:04pm

Sat Aug 1, 11:05am

Sat Aug 1, 10:05am

Sat Aug 1, 9:04am

Sat Aug 1, 8:04am

Sat Aug 1, 7:04am

Sat Aug 1, 6:04am

Sat Aug 1, 5:04am

Sat Aug 1, 4:05am

Sat Aug 1, 3:04am

Sat Aug 1, 2:04am

Sat Aug 1, 1:04am

Sat Aug 1, 12:05am

Fri Jul 31, 11:05pm

Fri Jul 31, 10:04pm

Fri Jul 31, 9:04pm

Fri Jul 31, 8:05pm

Fri Jul 31, 7:05pm

Fri Jul 31, 6:04pm

Fri Jul 31, 5:04pm

Fri Jul 31, 4:05pm

Fri Jul 31, 3:04pm

Fri Jul 31, 2:05pm

Fri Jul 31, 1:04pm

Fri Jul 31, 12:04pm

Meta data:

ID: 1e397445-c0c7-463e-8354-40754a59e23e
Link: https://api.weather.gov/products/1e397445-c0c7-463e-8354-40754a59e23e